Regional Weather Roundup
Issued by NWS Kansas City/Pleasant Hill, MO

Home | Current Version | Previous Version | Graphics & Text | Print | Product List | Glossary Off
Versions: 1 2 3 4 5 6 7 8 9 10 11 12 13 14 15 16 17 18 19 20 21 22 23 24 25 26 27 28 29 30 31 32 33 34 35 36 37 38 39 40 41 42 43 44 45 46 47 48 49 50

458
ASUS43 KEAX 290710
RWREAX

WEATHER ROUNDUP FOR EASTERN KANSAS AND NORTHWEST MISSOURI
NATIONAL WEATHER SERVICE KANSAS CITY/PLEASANT HILL MO
200 AM CDT FRI JUL 29 2016

KSZ040-057-103>105-MOZ028-029-037-043-290800-
...KANSAS CITY METROPOLITAN AREA...

CITY           SKY/WX    TMP DP  RH WIND       PRES   REMARKS
K.C. INTL      CLOUDY    74  65  73 NE7       29.99S
K.C. DOWNTOWN  CLOUDY    77  66  68 N7        29.97R
LEES SUMMIT    NOT AVBL
OLATHE - IXD   CLOUDY    69  69 100 W7        30.00S
OLATHE - OJC   CLOUDY    70  68  93 NW6       30.00R
LAWRENCE       CLOUDY    68  67  96 NW8       29.99F

$$

MOZ001>008-011>017-020>025-030>033-038>040-044>046-053-054-290800-
...NORTHERN AND CENTRAL MISSOURI...

CITY           SKY/WX    TMP DP  RH WIND       PRES   REMARKS
ST. JOSEPH     CLOUDY    70  65  84 N3        29.99S
MOSBY          CLOUDY    72  66  83 CALM      29.98S
WHITEMAN AFB   MOCLDY    73  73 100 NE3       29.94F
CLINTON        CLOUDY    72  70  94 CALM      29.94F
SEDALIA        CLOUDY    75  72  90 CALM      29.97F
WARSAW         NOT AVBL
CHILLICOTHE      N/A     70  66  87 CALM      29.99S
KIRKSVILLE     CLEAR     65  62  90 NW5       29.98F

$$

MOZ041-047>049-056>058-063>065-088>090-097-290800-
...EASTERN AND SOUTHERN MISSOURI...

CITY           SKY/WX    TMP DP  RH WIND       PRES   REMARKS
ST. LOUIS INTL PTCLDY    77  70  79 NW3       29.93F
SPIRIT OF STL  PTCLDY    74  72  93 CALM      29.92S
COLUMBIA       CLOUDY    72  70  93 NE3       29.96F
JEFFERSON CITY CLOUDY    72  70  93 CALM      29.94F
ROLLA          CLEAR     69  67  93 CALM      29.95F
OSAGE BEACH    CLEAR     71  70  96 N3        29.96F
SPRINGFIELD    CLEAR     72  69  90 S5        29.96F
JOPLIN         CLOUDY    73  69  87 NW3       29.97F
WEST PLAINS    CLEAR     69  66  90 W5        30.00R

$$

IAZ060-094-KSZ022-034>040-054-083-096-NEZ052-066-093-290800-
...KANSAS...SOUTHEAST NEBRASKA AND IOWA...

CITY           SKY/WX    TMP DP  RH WIND       PRES   REMARKS
TOPEKA         CLOUDY    67  66  97 NW3       29.99F
MANHATTAN      PTCLDY    68  66  93 CALM      30.00F
EMPORIA        CLOUDY    68  66  93 N3        30.00F
CHANUTE        CLOUDY    71  68  90 CALM      29.98F
WICHITA        CLOUDY    73  69  87 N6        29.99F
OMAHA          CLOUDY    70  65  84 N6        30.02S
LINCOLN        PTCLDY    70  64  81 N5        30.03F
FALLS CITY     CLEAR     70  67  90 CALM      30.00S
LAMONI         CLOUDY    66  63  90 N6        29.99F
DES MOINES     CLOUDY    69  63  81 N7        29.99S

$$





USA.gov is the U.S. government's official web portal to all federal, state and local government web resources and services.